星链-31264 (STARLINK-31264 )

导读

STARLINK-31264是美国太空探索技术公司SpaceX星链(Starlink)星座的一颗V2 Mini卫星,于2024年1月24日在范登堡太空军基地由猎鹰九号B1063火箭发射,属于星链第135批任务卫星,被送入近地轨道。它是星链星座扩展的一部分,助力实现全球无缝互联,可提供低延迟互联网服务,支持手机直连,旨在消除全球网络覆盖盲区。

基本信息
目录编号:
58845
目录名称:
STARLINK-31264
国际标识:
2024-017V
轨道中心:
EARTH
卫星名称:
星链-31264
卫星全名:
星链-31264 (STARLINK-31264 )
卫星状态:
在轨 (已飞行876 天)
发射日期:
2024-01-24 UTC
国别 :
美国 (US)
星等 :
--
轨道信息
数据来源 国际轨道数据
星历时间: 2026-06-17T16:08:10+0800
22小时前
查看轨道信息
半长轴: 6853.364km
偏心率: 0.0001192
轨道倾角: 53.159°
近地点辐角 78.982°
升交点赤经 191.040°
平近点角 281.131°
近地点: 474.41km
远地点: 476.044km
周期: 94.106分钟
每日圈数: 15.301962
详细信息
固有亮度:
5
最大亮度:
0.3
卫星平台:
Starlink v2.0 mini
覆盖范围:
全球
运营商:
太空探索技术公司
运营商所在国:
美国
制造商(研发单位):
太空探索技术公司
制造商所在国:
美国
使用方式:
暂无
卫星简介
星链(Starlink)计划是由太空探索技术公司(SpaceX)提出的一个巨型低轨卫星互联网星座项目,计划在2019年至2024年间在太空搭建由约1.2万颗卫星组成的“星链”网络,其中1584颗将部署在地球上空550千米处的近地轨道,并从2020年开始工作。该卫星仍在工作。
2D轨道图
3D轨道图
轨道高度分析图
轨道倾角分析图
轨道综合分析图
查看轨道综合分析图